Weather History for Camarillo, CA

Change the Weather History Date:

Tuesday, October 23, 2012

  Actual Average Record
Temperature  
Mean Temperature 60 °F 62 °F  
Max Temperature 70 °F 73 °F 97 °F (2007)
Min Temperature 50 °F 52 °F 35 °F (1961)
Degree Days  
Heating Degree Days 5 4  
Month to date heating degree days 17 59  
Since 1 July heating degree days 52 91  
Cooling Degree Days 0 1  
Month to date cooling degree days 54 23  
Year to date cooling degree days 345 306  
Growing Degree Days 10 (Base 50)    
Moisture  
Dew Point 50 °F    
Average Humidity 68    
Maximum Humidity 96    
Minimum Humidity 40    
Precipitation  
Precipitation 0.00 in 0.02 in 0.19 in (1989)
Month to date precipitation T 0.37  
Year to date precipitation 5.72 11.59  
Since 1 July precipitation 0.04 0.61  
Sea Level Pressure  
Sea Level Pressure 29.98 in    
Wind  
Wind Speed 7 mph (West)    
Max Wind Speed 24 mph    
Max Gust Speed 28 mph    
Visibility 10 miles    
Events      
T = Trace of Precipitation, MM = Missing Value Source: NWS Daily Summary

Daily Weather History Graph

Daily Weather History Graph

Search for Another Location

Airport:

Trip Planner

Search our weather history database for the weather conditions in past years. The results will help you decide how hot, cold, wet, or windy it might be!

Date:

Astronomy

Oct. 23, 2012 Rise Set
Actual Time 7:08 AM PDT 6:11 PM PDT
Civil Twilight 6:43 AM PDT 6:37 PM PDT
Nautical Twilight 6:13 AM PDT 7:06 PM PDT
Astronomical Twilight 5:44 AM PDT 7:35 PM PDT
Moon 2:44 PM PDT (10/23) 1:21 AM PDT (10/23)
Length of Visible Light 11h 54m
Length of Day
11h 03m
Waxing Gibbous, 67% of the Moon is Illuminated
Oct 23
Waxing Gibbous
Oct 29
Full
Nov 6
Last Quarter
Nov 13
New
Nov 20
First Quarter

Hourly Weather History & Observations

Time (PDT) Temp. Dew Point Humidity Pressure Visibility Wind Dir Wind Speed Gust Speed Precip Events Conditions
12:43 AM 60.8 °F 53.6 °F 77% 29.98 in 10.0 mi Calm Calm - N/A   Overcast
12:55 AM 60.1 °F 53.1 °F 78% 30.01 in 10.0 mi Calm Calm - N/A   Overcast
1:55 AM 57.9 °F 53.1 °F 84% 29.99 in 10.0 mi NW 3.5 mph - N/A   Partly Cloudy
2:55 AM 55.9 °F 53.1 °F 90% 29.99 in 10.0 mi Calm Calm - N/A   Partly Cloudy
3:55 AM 53.1 °F 51.1 °F 93% 29.98 in 10.0 mi Calm Calm - N/A   Clear
4:19 AM 55.4 °F 51.8 °F 88% 29.95 in 10.0 mi Calm Calm - N/A   Mostly Cloudy
4:55 AM 54.0 °F 51.1 °F 90% 29.98 in 10.0 mi Calm Calm - N/A   Clear
5:55 AM 51.1 °F 48.0 °F 89% 29.99 in 10.0 mi ENE 3.5 mph - N/A   Clear
6:55 AM 52.0 °F 50.0 °F 93% 30.00 in 10.0 mi Calm Calm - N/A   Clear
7:55 AM 51.1 °F 48.9 °F 92% 30.01 in 10.0 mi Calm Calm - N/A   Clear
8:55 AM 60.1 °F 53.1 °F 78% 30.01 in 10.0 mi ENE 5.8 mph - N/A   Clear
9:55 AM 63.0 °F 51.1 °F 65% 30.01 in 10.0 mi Calm Calm - N/A   Clear
10:55 AM 64.9 °F 48.9 °F 56% 30.01 in 10.0 mi SW 4.6 mph - N/A   Clear
11:55 AM 66.9 °F 41.0 °F 39% 30.01 in 10.0 mi WSW 9.2 mph - N/A   Clear
12:55 PM 68.0 °F 44.1 °F 42% 29.99 in 10.0 mi West 10.4 mph 18.4 mph N/A   Clear
1:55 PM 69.1 °F 45.0 °F 42% 29.96 in 10.0 mi West 12.7 mph - N/A   Clear
2:55 PM 69.1 °F 48.0 °F 47% 29.95 in 10.0 mi West 18.4 mph - N/A   Clear
3:55 PM 68.0 °F 50.0 °F 52% 29.94 in 10.0 mi West 20.7 mph - N/A   Clear
4:55 PM 66.0 °F 51.1 °F 59% 29.94 in 10.0 mi West 17.3 mph 25.3 mph N/A   Clear
5:55 PM 64.9 °F 51.1 °F 61% 29.94 in 10.0 mi West 16.1 mph - N/A   Clear
6:55 PM 63.0 °F 51.1 °F 65% 29.95 in 10.0 mi West 12.7 mph - N/A   Clear
7:55 PM 62.1 °F 51.1 °F 67% 29.95 in 10.0 mi West 12.7 mph - N/A   Clear
8:55 PM 60.1 °F 50.0 °F 69% 29.95 in 10.0 mi West 3.5 mph - N/A   Clear
9:55 PM 57.9 °F 50.0 °F 75% 29.96 in 10.0 mi SSE 5.8 mph - N/A   Clear
10:55 PM 57.0 °F 50.0 °F 77% 29.97 in 10.0 mi ENE 5.8 mph - N/A   Clear
11:55 PM 57.0 °F 48.9 °F 74% 29.97 in 10.0 mi ENE 5.8 mph - N/A   Clear